K5BOU Weather Reports


Display with metric or nautical units.
time (UTC)temp
F
wind
direction
speed
MPH
gust
MPH
rain 1hr
in
rain 24hr
in
rain mn
in
humidity
%
barometer
mb
20260903124608 80 203 0.0 0.0 0.00 0.01 0.01 99 1012.3
20260903124108 80 211 0.0 0.0 0.00 0.01 0.01 99 1012.4
20260903123602 80 197 0.0 0.0 0.00 0.01 0.01 99 1012.3
20260903123102 80 196 0.0 0.0 0.00 0.01 0.01 99 1012.2
20260903122601 80 184 0.0 0.0 0.00 0.01 0.01 99 1012.3
20260903122055 80 185 0.0 0.0 0.00 0.01 0.01 99 1012.0
20260903121549 80 181 0.0 0.0 0.00 0.01 0.01 99 1012.1
20260903121045 80 174 0.0 0.0 0.00 0.01 0.01 99 1012.2
20260903120544 80 169 0.0 0.0 0.00 0.01 0.01 99 1012.1
20260903120039 80 176 0.0 0.0 0.07 0.01 0.01 99 1012.2
20260903115537 80 182 0.0 0.0 0.07 0.01 0.01 99 1012.2
20260903115032 80 174 0.0 0.0 0.00 0.00 0.00 99 1012.2
20260903114527 80 201 0.0 0.0 0.00 0.00 0.00 99 1012.1
20260903114023 80 203 0.0 0.0 0.00 0.00 0.00 99 1012.1
20260903113518 80 215 0.0 0.0 0.00 0.00 0.00 99 1012.0
20260903113014 80 210 1.0 2.0 0.00 0.00 0.00 99 1012.2
20260903112510 80 204 1.0 3.0 0.00 0.00 0.00 99 1012.2
20260903112010 80 208 0.0 0.0 0.00 0.00 0.00 99 1012.3
20260903111503 80 174 0.0 3.0 0.00 0.00 0.00 99 1012.1
20260903111000 81 203 0.0 0.0 0.00 0.00 0.00 99 1012.3
20260903110455 81 210 0.0 0.0 0.00 0.00 0.00 99 1012.3
20260903105949 81 221 2.0 2.0 0.00 0.00 0.00 99 1011.9
20260903105445 81 209 2.0 5.0 0.00 0.00 0.00 98 1012.1
20260903104944 81 220 1.0 5.0 0.00 0.00 0.00 98 1012.0
20260903104444 82 194 2.0 3.0 0.00 0.00 0.00 98 1011.8
20260903103941 82 204 2.0 5.0 0.00 0.00 0.00 97 1011.7
20260903103436 82 214 2.0 2.0 0.00 0.00 0.00 97 1011.9
20260903102932 82 185 0.0 1.0 0.00 0.00 0.00 97 1012.0
20260903102427 82 191 0.0 1.0 0.00 0.00 0.00 97 1011.8
20260903101925 82 201 1.0 3.0 0.00 0.00 0.00 97 1012.0
20260903101421 82 189 0.0 0.0 0.00 0.00 0.00 97 1011.9
20260903100916 82 195 0.0 1.0 0.00 0.00 0.00 97 1011.9
20260903100411 82 190 0.0 2.0 0.00 0.00 0.00 96 1012.0
20260903095908 82 204 0.0 2.0 0.00 0.00 0.00 96 1011.7
20260903095403 82 198 1.0 3.0 0.00 0.00 0.00 96 1011.8
20260903094857 82 177 2.0 3.0 0.00 0.00 0.00 96 1011.9
20260903094352 82 179 4.0 5.0 0.00 0.00 0.00 96 1011.7
20260903093848 82 174 1.0 3.0 0.00 0.00 0.00 96 1011.8
20260903093343 82 179 1.0 3.0 0.00 0.00 0.00 96 1011.7
20260903092838 82 189 1.0 3.0 0.00 0.00 0.00 96 1011.8
20260903092332 82 186 1.0 3.0 0.00 0.00 0.00 96 1011.7
20260903091831 82 222 1.0 6.0 0.00 0.00 0.00 96 1011.8
20260903091330 82 205 2.0 3.0 0.00 0.00 0.00 96 1011.8
20260903090826 82 196 1.0 3.0 0.00 0.00 0.00 96 1012.0
20260903090321 82 199 1.0 2.0 0.00 0.00 0.00 96 1011.7
20260903085819 82 198 2.0 2.0 0.00 0.00 0.00 96 1011.9
20260903085313 82 207 3.0 3.0 0.00 0.00 0.00 96 1011.9
20260903084812 82 199 1.0 5.0 0.00 0.00 0.00 96 1012.0
20260903084311 82 192 0.0 5.0 0.00 0.00 0.00 96 1011.7
20260903083807 82 225 5.0 7.0 0.00 0.00 0.00 96 1011.9
20260903083302 82 172 0.0 3.0 0.00 0.00 0.00 96 1011.7
20260903082801 82 167 3.0 5.0 0.00 0.00 0.00 97 1011.7
20260903082257 82 182 1.0 2.0 0.00 0.00 0.00 97 1011.5
20260903081757 82 181 0.0 1.0 0.00 0.00 0.00 96 1011.7
20260903081252 82 183 2.0 2.0 0.00 0.00 0.00 96 1011.8
20260903080749 82 184 0.0 2.0 0.00 0.00 0.00 96 1011.8
20260903080246 82 185 0.0 1.0 0.00 0.00 0.00 96 1011.6
20260903075745 82 186 0.0 0.0 0.00 0.00 0.00 96 1011.6
20260903075240 82 171 1.0 2.0 0.00 0.00 0.00 96 1011.6
20260903074739 82 193 1.0 1.0 0.00 0.00 0.00 96 1011.6
20260903074235 82 173 1.0 1.0 0.00 0.00 0.00 96 1011.7
20260903073730 82 164 3.0 5.0 0.00 0.00 0.00 96 1011.7
20260903073225 82 180 0.0 3.0 0.00 0.00 0.00 96 1011.6
20260903072721 82 183 1.0 5.0 0.00 0.00 0.00 96 1011.7
20260903072217 82 184 0.0 5.0 0.00 0.00 0.00 96 1011.8
20260903071713 82 182 1.0 2.0 0.00 0.00 0.00 96 1011.8
20260903071209 82 180 1.0 3.0 0.00 0.00 0.00 95 1011.9
20260903070708 82 151 1.0 3.0 0.00 0.00 0.00 95 1012.0
20260903070204 83 147 1.0 2.0 0.00 0.00 0.00 95 1012.0
20260903065659 83 183 0.0 1.0 0.00 0.00 0.00 95 1012.2
20260903065153 83 195 0.0 1.0 0.00 0.00 0.00 95 1012.5
20260903064652 83 157 0.0 2.0 0.00 0.00 0.00 95 1012.5
20260903064148 83 171 1.0 3.0 0.00 0.00 0.00 95 1012.4
20260903063643 83 197 0.0 2.0 0.00 0.00 0.00 95 1012.3
20260903063138 83 177 1.0 2.0 0.00 0.00 0.00 95 1012.2
20260903062634 83 184 1.0 2.0 0.00 0.00 0.00 95 1012.2
20260903062129 83 198 1.0 3.0 0.00 0.00 0.00 95 1012.3
20260903061624 83 179 1.0 2.0 0.00 0.00 0.00 95 1012.4
20260903061124 83 201 0.0 1.0 0.00 0.00 0.00 95 1012.4
20260903060619 83 174 0.0 3.0 0.00 0.00 0.00 95 1012.5
20260903060114 83 188 0.0 2.0 0.00 0.00 0.00 94 1012.6
20260903055612 83 183 0.0 2.0 0.00 0.00 0.00 94 1012.5
20260903055110 83 188 2.0 3.0 0.00 0.00 0.00 94 1012.9
20260903054605 84 185 0.0 2.0 0.00 0.00 0.00 94 1012.8
20260903054101 84 182 1.0 2.0 0.00 0.00 0.00 94 1012.9
20260903053556 84 192 0.0 0.0 0.00 0.00 0.00 94 1012.8
20260903053052 84 184 0.0 1.0 0.00 0.00 0.00 94 1012.7
20260903052548 84 183 0.0 0.0 0.00 0.00 0.00 94 1013.0
20260903052044 84 183 0.0 1.0 0.00 0.00 0.00 94 1013.1
20260903051543 84 181 0.0 0.0 0.00 0.00 0.00 94 1013.3
20260903051039 84 221 2.0 2.0 0.00 0.00 0.00 94 1013.2
20260903050538 84 203 0.0 0.0 0.00 0.00 0.00 94 1013.1
20260903050034 84 196 0.0 0.0 0.00 0.00 0.00 94 1013.0
20260903045533 84 177 0.0 0.0 0.00 0.00 0.00 94 1013.2
20260903045030 84 175 1.0 2.0 0.00 0.00 0.00 94 1013.1
20260903044525 84 181 0.0 0.0 0.00 0.00 0.00 94 1013.2
20260903044021 84 200 3.0 5.0 0.00 0.00 0.00 94 1012.9
20260903043516 84 174 0.0 3.0 0.00 0.00 0.00 94 1012.9
20260903043016 84 178 0.0 5.0 0.00 0.00 0.00 94 1012.8
20260903042516 84 158 3.0 6.0 0.00 0.00 0.00 94 1013.0
20260903042011 84 154 3.0 5.0 0.00 0.00 0.00 94 1012.9
20260903041508 84 181 0.0 2.0 0.00 0.00 0.00 94 1012.8
20260903041003 84 163 2.0 5.0 0.00 0.00 0.00 94 1012.7
20260903040502 84 154 2.0 3.0 0.00 0.00 0.00 94 1012.9
20260903035959 84 154 4.0 8.0 0.00 0.00 0.00 94 1012.6
20260903035454 84 150 1.0 2.0 0.00 0.00 0.00 94 1012.7
20260903034949 84 189 0.0 3.0 0.00 0.00 0.00 94 1012.7
20260903034444 84 177 1.0 2.0 0.00 0.00 0.00 94 1012.5
20260903033944 84 188 1.0 3.0 0.00 0.00 0.00 94 1012.7
20260903033439 84 189 0.0 3.0 0.00 0.00 0.00 94 1012.5
20260903032935 84 158 2.0 3.0 0.00 0.00 0.00 94 1012.4
20260903032430 84 187 3.0 3.0 0.00 0.00 0.00 93 1012.4
20260903031925 84 172 0.0 3.0 0.00 0.00 0.00 93 1012.3
20260903031425 84 172 1.0 3.0 0.00 0.00 0.00 93 1012.4
20260903030920 84 182 1.0 5.0 0.00 0.00 0.00 92 1012.2
20260903030416 84 177 0.0 5.0 0.00 0.00 0.00 92 1012.1
20260903025912 84 175 1.0 5.0 0.00 0.00 0.00 91 1011.9
20260903025407 84 164 0.0 3.0 0.00 0.00 0.00 91 1011.9
20260903024902 84 183 3.0 6.0 0.00 0.00 0.00 90 1011.9
20260903024356 84 180 2.0 6.0 0.00 0.00 0.00 90 1011.5
20260903023851 84 170 1.0 5.0 0.00 0.00 0.00 89 1011.6
20260903023347 84 153 2.0 5.0 0.00 0.00 0.00 89 1011.5
20260903022842 84 170 5.0 7.0 0.00 0.00 0.00 88 1011.7
20260903022341 84 126 5.0 7.0 0.00 0.00 0.00 87 1011.5
20260903021840 85 177 3.0 6.0 0.00 0.00 0.00 87 1011.4
20260903021336 85 174 0.0 5.0 0.00 0.00 0.00 86 1011.4
20260903020835 85 171 1.0 3.0 0.00 0.00 0.00 86 1011.2
20260903020331 85 180 3.0 8.0 0.00 0.00 0.00 86 1011.1
20260903015825 85 167 1.0 5.0 0.00 0.00 0.00 85 1010.8
20260903015321 85 186 5.0 9.0 0.00 0.00 0.00 85 1010.7
20260903014816 85 183 1.0 8.0 0.00 0.00 0.00 84 1010.6
20260903014316 86 153 3.0 8.0 0.00 0.00 0.00 83 1010.7
20260903013811 86 187 0.0 7.0 0.00 0.00 0.00 82 1010.6
20260903013310 86 193 2.0 6.0 0.00 0.00 0.00 81 1010.6
20260903012809 86 176 1.0 5.0 0.00 0.00 0.00 80 1010.6
20260903012306 86 149 3.0 8.0 0.00 0.00 0.00 80 1010.7
20260903011803 87 156 2.0 6.0 0.00 0.00 0.00 79 1010.8
20260903011302 87 175 5.0 7.0 0.00 0.00 0.00 78 1010.8
20260903010758 87 194 5.0 7.0 0.00 0.00 0.00 78 1010.3
20260903010254 87 154 5.0 13.0 0.00 0.00 0.00 77 1010.4
20260903005752 87 164 6.0 9.0 0.00 0.00 0.00 76 1010.5
20260903005247 87 149 2.0 9.0 0.00 0.00 0.00 75 1010.3
20260903004743 88 157 3.0 11.0 0.00 0.00 0.00 75 1010.6
20260903004238 88 231 6.0 10.0 0.00 0.00 0.00 74 1010.2
20260903003733 88 183 3.0 9.0 0.00 0.00 0.00 73 1010.2
20260903003229 89 165 1.0 8.0 0.00 0.00 0.00 72 1010.3
20260903002723 89 213 6.0 10.0 0.00 0.00 0.00 71 1010.0
20260903002218 89 204 4.0 10.0 0.00 0.00 0.00 70 1009.8
20260903001714 89 193 5.0 10.0 0.00 0.00 0.00 68 1010.0
20260903001212 90 221 2.0 8.0 0.00 0.00 0.00 68 1010.0
20260903000708 90 191 4.0 10.0 0.00 0.00 0.00 67 1009.8
20260903000204 90 181 5.0 10.0 0.00 0.00 0.00 66 1009.8
20260902235700 90 202 3.0 9.0 0.00 0.00 0.00 66 1009.6
20260902235156 91 143 4.0 7.0 0.00 0.00 0.00 67 1009.6
20260902234655 91 211 4.0 7.0 0.00 0.00 0.00 67 1009.8
20260902234154 91 109 4.0 8.0 0.00 0.00 0.00 67 1009.8
20260902233649 91 167 5.0 9.0 0.00 0.00 0.00 66 1009.7
20260902233149 91 200 4.0 15.0 0.00 0.00 0.00 66 1009.7
20260902232648 92 193 6.0 11.0 0.00 0.00 0.00 66 1009.7
20260902232147 92 169 4.0 9.0 0.00 0.00 0.00 65 1009.7
20260902231641 92 197 6.0 10.0 0.00 0.00 0.00 65 1009.6
20260902231136 93 172 5.0 10.0 0.00 0.00 0.00 65 1009.7
20260902230632 93 182 1.0 14.0 0.00 0.00 0.00 64 1009.7
20260902230130 93 204 6.0 9.0 0.00 0.00 0.00 64 1009.5
20260902225626 93 201 3.0 7.0 0.00 0.00 0.00 65 1009.6
20260902225125 93 167 5.0 6.0 0.00 0.00 0.00 65 1009.6
20260902224624 93 145 6.0 9.0 0.00 0.00 0.00 65 1009.4
20260902224120 93 191 3.0 8.0 0.00 0.00 0.00 66 1009.5
20260902223616 94 228 7.0 9.0 0.00 0.00 0.00 65 1009.6
20260902223115 94 157 5.0 10.0 0.00 0.00 0.00 65 1009.6
20260902222614 94 157 4.0 10.0 0.00 0.00 0.00 65 1009.6
20260902222113 94 181 2.0 8.0 0.00 0.00 0.00 65 1009.5
20260902221607 95 150 6.0 9.0 0.00 0.00 0.00 64 1009.6
20260902221102 95 189 3.0 8.0 0.00 0.00 0.00 65 1009.5
20260902220557 95 199 1.0 5.0 0.00 0.00 0.00 65 1009.6
20260902220052 95 174 4.0 8.0 0.00 0.00 0.00 64 1009.3
20260902215548 95 199 4.0 9.0 0.00 0.00 0.00 63 1009.4
20260902215043 95 151 2.0 8.0 0.00 0.00 0.00 63 1009.6
20260902214538 96 154 5.0 8.0 0.00 0.00 0.00 62 1009.6
20260902214037 96 220 5.0 10.0 0.00 0.00 0.00 61 1009.5
20260902213533 96 214 5.0 7.0 0.00 0.00 0.00 59 1009.5
20260902213032 96 225 4.0 6.0 0.00 0.00 0.00 59 1009.7
20260902212528 96 140 4.0 7.0 0.00 0.00 0.00 59 1009.6
20260902212024 96 229 6.0 13.0 0.00 0.00 0.00 59 1009.8
20260902211520 96 210 5.0 7.0 0.00 0.00 0.00 60 1009.9
20260902211015 96 175 5.0 8.0 0.00 0.00 0.00 60 1009.8
20260902210514 97 170 3.0 6.0 0.00 0.00 0.00 59 1010.0
20260902210014 96 217 4.0 7.0 0.00 0.00 0.00 60 1009.9
20260902205508 97 213 4.0 7.0 0.00 0.00 0.00 62 1009.9
20260902205004 96 163 3.0 8.0 0.00 0.00 0.00 61 1009.8
20260902204503 96 218 6.0 7.0 0.00 0.00 0.00 61 1010.2
20260902203958 96 191 1.0 3.0 0.00 0.00 0.00 59 1010.1
20260902203454 96 228 5.0 8.0 0.00 0.00 0.00 59 1010.0
20260902202952 96 193 3.0 8.0 0.00 0.00 0.00 61 1010.2
20260902202449 96 217 5.0 6.0 0.00 0.00 0.00 59 1010.2
20260902201945 96 190 3.0 8.0 0.00 0.00 0.00 59 1010.3
20260902201440 97 193 4.0 7.0 0.00 0.00 0.00 58 1010.2
20260902200940 97 172 1.0 9.0 0.00 0.00 0.00 58 1010.5
20260902200435 97 186 1.0 6.0 0.00 0.00 0.00 60 1010.4
20260902195931 97 209 5.0 8.0 0.00 0.00 0.00 59 1010.7
20260902195426 96 223 3.0 6.0 0.00 0.00 0.00 59 1010.6
20260902194926 96 122 3.0 7.0 0.00 0.00 0.00 60 1010.5
20260902194420 96 209 5.0 9.0 0.00 0.00 0.00 60 1010.8
20260902193915 96 177 3.0 9.0 0.00 0.00 0.00 61 1010.9
20260902193411 96 201 1.0 7.0 0.00 0.00 0.00 60 1011.1
20260902192909 97 216 6.0 9.0 0.00 0.00 0.00 60 1011.0
20260902192409 96 231 6.0 9.0 0.00 0.00 0.00 60 1011.2
20260902191902 96 224 3.0 6.0 0.00 0.00 0.00 61 1011.2
20260902191358 96 184 3.0 8.0 0.00 0.00 0.00 62 1011.3
20260902190858 96 190 3.0 9.0 0.00 0.00 0.00 61 1011.3
20260902190353 96 218 5.0 8.0 0.00 0.00 0.00 63 1011.3
20260902185849 94 197 2.0 3.0 0.00 0.00 0.00 63 1011.6
20260902185345 94 240 4.0 7.0 0.00 0.00 0.00 63 1011.6
20260902184840 94 258 5.0 7.0 0.00 0.00 0.00 64 1011.7
20260902184335 95 236 6.0 10.0 0.00 0.00 0.00 63 1011.6
20260902183831 95 236 3.0 7.0 0.00 0.00 0.00 63 1011.7
20260902183327 95 211 6.0 8.0 0.00 0.00 0.00 63 1011.7
20260902182822 96 312 8.0 13.0 0.00 0.00 0.00 63 1012.0
20260902182318 95 223 3.0 8.0 0.00 0.00 0.00 66 1012.1
20260902181815 95 201 2.0 8.0 0.00 0.00 0.00 66 1011.9
20260902181310 94 217 4.0 7.0 0.00 0.00 0.00 64 1012.2
20260902180804 95 240 4.0 9.0 0.00 0.00 0.00 66 1012.1
20260902180300 94 233 6.0 8.0 0.00 0.00 0.00 66 1012.3
20260902175755 93 224 5.0 7.0 0.00 0.00 0.00 68 1012.6
20260902175250 93 235 8.0 9.0 0.00 0.00 0.00 67 1012.6
20260902174746 93 296 11.0 13.0 0.00 0.00 0.00 69 1012.8
20260902174242 93 231 10.0 13.0 0.00 0.00 0.00 69 1012.7
20260902173737 92 185 5.0 10.0 0.00 0.00 0.00 70 1012.8
20260902173237 92 226 6.0 10.0 0.00 0.00 0.00 70 1012.8
20260902172732 92 206 7.0 9.0 0.00 0.00 0.00 71 1013.1
20260902172232 91 236 8.0 10.0 0.00 0.00 0.00 71 1013.2
20260902171727 92 216 5.0 9.0 0.00 0.00 0.00 72 1013.1
20260902171222 91 270 5.0 9.0 0.00 0.00 0.00 74 1013.4
20260902170718 90 220 5.0 9.0 0.00 0.00 0.00 76 1013.4
20260902170213 90 241 5.0 13.0 0.00 0.00 0.00 76 1013.5
20260902165708 89 254 7.0 9.0 0.00 0.00 0.00 78 1013.5
20260902165202 89 228 5.0 9.0 0.00 0.00 0.00 78 1013.5
20260902164657 88 253 9.0 10.0 0.00 0.00 0.00 79 1013.6
20260902164156 88 244 9.0 10.0 0.00 0.00 0.00 80 1013.7
20260902163652 88 231 5.0 11.0 0.00 0.00 0.00 83 1013.7
20260902163151 88 218 5.0 10.0 0.00 0.00 0.00 82 1013.8
20260902162650 88 183 5.0 9.0 0.00 0.00 0.00 84 1013.7
20260902162144 87 262 8.0 13.0 0.00 0.00 0.00 83 1013.9
20260902161640 87 198 8.0 13.0 0.00 0.00 0.00 84 1013.9
20260902161136 87 236 7.0 14.0 0.00 0.00 0.00 84 1014.0
20260902160632 87 240 9.0 13.0 0.00 0.00 0.00 84 1013.9
20260902160127 87 238 5.0 11.0 0.00 0.00 0.00 86 1014.0
20260902155625 87 213 8.0 14.0 0.00 0.00 0.00 87 1013.9
20260902155124 87 239 9.0 13.0 0.00 0.00 0.00 87 1013.9
20260902154619 86 275 6.0 13.0 0.00 0.00 0.00 88 1013.9
20260902154114 86 211 6.0 10.0 0.00 0.00 0.00 89 1013.8
20260902153613 85 226 6.0 11.0 0.00 0.00 0.00 89 1013.9
20260902153108 85 243 8.0 10.0 0.00 0.00 0.00 90 1013.9
20260902152605 85 212 7.0 11.0 0.00 0.00 0.00 91 1013.8
20260902152100 85 248 5.0 10.0 0.00 0.00 0.00 91 1013.7
20260902151556 84 221 4.0 7.0 0.00 0.00 0.00 92 1013.8
20260902151055 84 238 7.0 9.0 0.00 0.00 0.00 93 1013.8
20260902150550 84 214 6.0 10.0 0.00 0.00 0.00 94 1013.8
20260902150046 84 263 9.0 10.0 0.00 0.00 0.00 94 1013.7
20260902145541 83 262 7.0 9.0 0.00 0.00 0.00 95 1013.6
20260902145040 83 225 5.0 11.0 0.00 0.00 0.00 96 1013.7
20260902144537 83 240 8.0 11.0 0.00 0.00 0.00 97 1013.8
20260902144038 82 253 4.0 8.0 0.00 0.00 0.00 98 1013.7
20260902143538 82 229 8.0 9.0 0.00 0.00 0.00 98 1013.7
20260902143034 82 230 5.0 6.0 0.00 0.00 0.00 99 1013.8
20260902142529 82 213 5.0 7.0 0.00 0.00 0.00 99 1013.9
20260902142024 82 224 5.0 6.0 0.00 0.00 0.00 99 1013.7
20260902141524 81 231 3.0 3.0 0.00 0.00 0.00 99 1013.7
20260902141019 81 239 5.0 6.0 0.00 0.00 0.00 99 1013.6
20260902140514 81 301 5.0 5.0 0.00 0.00 0.00 99 1013.9
20260902140009 80 234 0.0 0.0 0.00 0.00 0.00 99 1013.8
20260902135504 80 219 0.0 0.0 0.00 0.00 0.00 99 1013.9
20260902135004 80 209 0.0 0.0 0.00 0.00 0.00 99 1013.9
20260902134459 80 221 0.0 0.0 0.00 0.00 0.00 99 1014.0
20260902133954 79 211 0.0 0.0 0.00 0.00 0.00 99 1014.0
20260902133448 79 248 2.0 2.0 0.00 0.00 0.00 99 1013.7
20260902132943 79 207 0.0 0.0 0.00 0.00 0.00 99 1013.7
20260902132439 79 206 0.0 0.0 0.00 0.00 0.00 99 1013.5
20260902131933 79 205 0.0 0.0 0.00 0.00 0.00 99 1013.6
20260902131430 79 205 0.0 0.0 0.00 0.00 0.00 99 1013.6
20260902130929 78 205 0.0 0.0 0.00 0.00 0.00 99 1013.3
20260902130426 78 205 0.0 0.0 0.00 0.00 0.00 99 1013.3
20260902125920 78 206 0.0 0.0 0.00 0.00 0.00 99 1013.5
20260902125416 78 205 0.0 0.0 0.00 0.00 0.00 99 1013.2